Location: Stanford
(52.2833°N, 2.4333°W)
Time: 02:18:23
(UTC+00:00)

Meteor 1-24 Rocket - Pass Details

Date: 22 January 2021
Orbit: 791 x 927 km, 81.3° (Epoch: 28 February)

Event Time Altitude Azimuth Distance (km) Brightness Sun altitude
Rises 17:21:55 0° 178° (S) 3,304 7.1 -6.7°
Reaches altitude 10° 17:24:19 10° 174° (S) 2,367 6.3 -7.0°
Maximum altitude 17:29:31 58° 97° (E) 928 3.7 -7.7°
Drops below altitude 10° 17:34:43 10° 19° (NNE) 2,372 5.7 -8.5°
Sets 17:37:08 0° 16° (NNE) 3,311 6.4 -8.8°
